[ ตารางข้อมูล ] [ Min-Max ] [ วันนี้4 ] [ วันนี้2 ] [ เทียบ3วัน A ] [ เทียบ4วัน B ]   

วันนี้2   [ ◀ ช่วงเก่ากว่า ] [ ช่วงที่ 270 ] [ ช่วงใหม่กว่า ▶ ] [ ล่าสุด ]    [ 3 ชั่วโมง ] [ 6 ชั่วโมง ] [ 12 ชั่วโมง ] [ 24 ชั่วโมง ]   วันนี้2

อุณภูมิตู้ Knockdown4529  ราย 3 ชั่วโมง  ที่วัดได้ ในช่วงวันเวลา 03/04/2026 (22:48) ถึง 04/04/2026 (01:48) 
ความชื้นในตู้ Knockdown4529  ราย 3 ชั่วโมง  ที่วัดได้ ในช่วงวันเวลา 03/04/2026 (22:48) ถึง 04/04/2026 (01:48) 

 
DS18B20SHTC3 
IDDate d/m/Y & Timedata1
สูง
data2
ต่ำ
data3
นอก
temp
pcb
hum
pcb
Time
 8587  04/04/2026 01:47:47  27.1  27.3  25.3  27.1  69.6  01:47 
 8586  04/04/2026 01:43:05  27.2  27.3  25.2  27.1  69.5  01:43 
 8585  04/04/2026 01:38:24  27.2  27.4  25.3  27.2  69.5  01:38 
 8584  04/04/2026 01:33:42  27.2  27.4  25.3  27.2  69.5  01:33 
 8583  04/04/2026 01:29:01  27.2  27.4  25.3  27.2  69.5  01:29 
 8582  04/04/2026 01:24:20  27.3  27.4  25.2  27.4  69.4  01:24 
 8581  04/04/2026 01:19:38  27.3  27.4  25.0  27.2  69.4  01:19 
 8580  04/04/2026 01:14:57  27.3  27.5  24.9  27.2  69.4  01:14 
 8579  04/04/2026 01:10:14  27.4  27.5  24.9  27.4  69.4  01:10 
 8578  04/04/2026 01:05:33  27.4  27.6  24.9  27.5  69.4  01:05 
 8577  04/04/2026 01:00:51  27.4  27.6  24.7  27.4  69.5  01:00 
 8576  04/04/2026 00:56:09  27.5  27.6  24.7  27.2  69.3  00:56 
 8575  04/04/2026 00:51:27  27.5  27.6  24.7  27.6  69.3  00:51 
 8574  04/04/2026 00:46:45  27.6  27.7  24.9  27.6  69.3  00:46 
 8573  04/04/2026 00:42:04  27.6  27.7  24.7  27.6  69.3  00:42 
 8572  04/04/2026 00:37:22  27.6  27.8  24.7  27.6  69.3  00:37 
 8571  04/04/2026 00:32:40  27.7  27.8  24.5  27.6  69.1  00:32 
 8570  04/04/2026 00:27:59  27.7  27.8  24.5  27.6  69.1  00:27 
 8569  04/04/2026 00:23:17  27.7  27.8  24.5  27.6  69.1  00:23 
 8568  04/04/2026 00:18:35  27.7  27.9  24.7  27.7  69.0  00:18 
 8567  04/04/2026 00:13:53  27.8  27.9  24.7  27.6  69.1  00:13 
 8566  04/04/2026 00:09:12  27.8  27.9  24.6  27.8  69.1  00:09 
 8565  04/04/2026 00:04:30  27.8  28.0  24.7  27.9  69.1  00:04 
 8564  03/04/2026 23:59:48  27.8  28.0  24.9  27.8  69.0  23:59 

Data every 5 minute.


ใช้เวลาประมวลผล 0.00313 วินาที